Flag for Germany Weather past 2 weeks in Darmstadt, Hesse, Germany

Now
41 °F

Broken clouds.


Feels Like: 33 °F
Forecast: 36 / 46 °F
Wind: 14 mph from Southwest

Location: Frankfurt-M-Flughafen Airport

Current Time: Mar 4, 2015 at 10:37:04 AM

Latest Report: Mar 4, 2015 at 10:20 AM


Visibility: N/A

Pressure: 30.27 "Hg

Humidity: 70%

Dew point: 32 °F

Location of DarmstadtLocation

Historic Weather in Darmstadt — Graph

°F

Darmstadt temperature yesterday

Maximum temperature yesterday: 52 °F (at 3:20 PM)
Minimum temperature yesterday: 32 °F (at 7:20 AM)
Average temperature yesterday: 42 °F

Past Weeks' High & Low Weather Summary

 TemperatureHumidityPressure
High52 °F (Feb 20, 1:50 PM)100% (Feb 22, 2:50 AM)30.74 "Hg (Feb 22, 2:50 AM)
Low28 °F (Feb 28, 6:50 AM)35% (Mar 2, 2:50 PM)29.45 "Hg (Feb 21, 7:20 AM)
Average40 °F79%30.00 "Hg
* Reported Feb 17 9:20 AM — Mar 4 9:20 AM, Darmstadt, Weather by CustomWeather, © 2015

Note: Actual official high and low records may vary slightly from our data, if they occured in-between our weather recording intervals... More about our weather records

Advertising

Darmstadt weather history for previous 24 hours

 ConditionsComfort  
Time TempWeatherWind HumidityBarometerVisibility
9:20 AM
Wed, Mar 4
39 °FPartly sunny.9 mph81%30.27 "HgN/A
8:50 AM37 °FPartly sunny.7 mph87%30.27 "HgN/A
8:20 AM34 °FPartly sunny.5 mph93%30.24 "HgN/A
7:50 AM34 °FPartly sunny.5 mph93%30.24 "HgN/A
7:20 AM34 °FScattered clouds.8 mph93%30.24 "HgN/A
6:50 AM34 °FPassing clouds.6 mph93%30.21 "HgN/A
6:20 AM36 °FPassing clouds.5 mph87%30.21 "HgN/A
5:50 AM34 °FPassing clouds.3 mph100%30.21 "HgN/A
5:20 AM34 °FPassing clouds.3 mph100%30.21 "HgN/A
4:50 AM37 °FSprinkles. Passing clouds.9 mph87%30.18 "HgN/A
4:20 AM37 °FPassing clouds.9 mph87%30.18 "HgN/A
3:50 AM36 °FPassing clouds.12 mph93%30.18 "HgN/A
3:20 AM34 °FPassing clouds.3 mph100%30.18 "HgN/A
2:50 AM36 °FPassing clouds.2 mph93%30.15 "HgN/A
2:20 AM36 °FPartly cloudy.6 mph93%30.15 "HgN/A
1:50 AM37 °FSprinkles. Partly cloudy.7 mph93%30.15 "HgN/A
1:20 AM39 °FSprinkles. Partly cloudy.9 mph87%30.15 "HgN/A
12:50 AM39 °FPartly cloudy.7 mph87%30.12 "HgN/A
12:20 AM39 °FSprinkles. Partly cloudy.9 mph87%30.12 "HgN/A
11:50 PM
Tue, Mar 3
41 °FSprinkles. Partly cloudy.8 mph76%30.12 "HgN/A
11:20 PM39 °FPassing clouds.12 mph81%30.09 "HgN/A
10:20 PM41 °FPartly cloudy.15 mph81%30.09 "HgN/A
9:50 PM41 °FPartly cloudy.10 mph81%30.09 "HgN/A
9:20 PM43 °FSprinkles. Partly cloudy.14 mph76%30.07 "HgN/A
8:50 PM45 °FSprinkles. Passing clouds.20 mph76%30.07 "HgN/A
8:20 PM48 °FPassing clouds.16 mph50%30.04 "HgN/A
7:50 PM48 °FPassing clouds.17 mph50%30.01 "HgN/A
7:20 PM48 °FPassing clouds.16 mph50%30.04 "HgN/A
6:50 PM48 °FPassing clouds.16 mph50%30.04 "HgN/A
6:20 PM48 °FPassing clouds.20 mph46%30.01 "HgN/A
5:50 PM50 °FScattered clouds.20 mph43%30.01 "HgN/A
5:20 PM50 °FPartly sunny.20 mph47%30.04 "HgN/A
4:50 PM50 °FScattered clouds.23 mph47%30.04 "HgN/A
4:20 PM50 °FScattered clouds.18 mph50%30.04 "HgN/A
3:50 PM50 °FScattered clouds.23 mph50%30.04 "HgN/A
3:20 PM52 °FScattered clouds.22 mph47%30.07 "HgN/A
2:50 PM50 °FScattered clouds.22 mph50%30.07 "HgN/A
2:20 PM50 °FScattered clouds.15 mph54%30.07 "HgN/A
1:50 PM48 °FScattered clouds.16 mph54%30.09 "HgN/A
1:20 PM48 °FScattered clouds.20 mph54%30.12 "HgN/A
12:50 PM48 °FScattered clouds.20 mph54%30.12 "HgN/A
12:20 PM46 °FPassing clouds.17 mph62%30.12 "HgN/A
11:50 AM45 °FPassing clouds.17 mph61%30.15 "HgN/A
11:20 AM45 °FPassing clouds.15 mph66%30.15 "HgN/A
10:50 AM43 °FPassing clouds.13 mph66%30.15 "HgN/A
10:20 AM41 °FPassing clouds.14 mph70%30.15 "HgN/A
Weather by CustomWeather, © 2015

See weather overviewHow to use our weather pages